Flag for Cuba Weather past 2 weeks in Santiago de Cuba, Cuba

Now
82 °F

Passing clouds.


Feels Like: 86 °F
Forecast: N/A
Wind: 9 mph from South

Location: Santiago De Cuba - Oriente

Current Time: Mar 5, 2015 at 6:09:47 PM

Latest Report: Mar 5, 2015 at 4:51 PM


Visibility: N/A

Pressure: 30.04 "Hg

Humidity: 66%

Dew point: 70 °F

Location of Santiago de CubaLocation

Historic Weather in Santiago de Cuba — Graph

°F

Santiago de Cuba temperature yesterday

Maximum temperature yesterday: 84 °F (at 9:50 AM)
Minimum temperature yesterday: 70 °F (at 3:50 AM)
Average temperature yesterday: 77 °F

Past Weeks' High & Low Weather Summary

 TemperatureHumidityPressure
High86 °F (Feb 23, 12:50 PM)88% (Feb 22, 5:50 AM)30.18 "Hg (Feb 22, 5:50 AM)
Low64 °F (Feb 20, 3:50 AM)43% (Mar 2, 9:50 AM)29.95 "Hg (Feb 24, 2:50 PM)
Average77 °F68%30.05 "Hg
* Reported Feb 18 4:51 PM — Mar 5 4:51 PM, Santiago de Cuba, Weather by CustomWeather, © 2015

Note: Actual official high and low records may vary slightly from our data, if they occured in-between our weather recording intervals... More about our weather records

Advertising

Santiago de Cuba weather history for previous 24 hours

 ConditionsComfort  
Time TempWeatherWind HumidityBarometerVisibility
4:51 PM
Thu, Mar 5
82 °FPassing clouds.9 mph66%30.04 "HgN/A
3:50 PM82 °FScattered clouds.12 mph62%30.01 "HgN/A
2:50 PM84 °FScattered clouds.15 mph62%30.01 "HgN/A
1:51 PM84 °FScattered clouds.14 mph58%30.04 "HgN/A
12:51 PM84 °FScattered clouds.13 mph58%30.07 "HgN/A
11:51 AM84 °FScattered clouds.13 mph58%30.07 "HgN/A
10:50 AM82 °FPassing clouds.9 mph55%30.09 "HgN/A
9:50 AM81 °FPassing clouds.3 mph51%30.09 "HgN/A
8:50 AM81 °FScattered clouds.5 mph54%30.09 "HgN/A
7:52 AM75 °FPassing clouds.5 mph65%30.07 "Hg6 mi
6:52 AM68 °FPassing clouds.6 mph83%30.07 "Hg6 mi
5:52 AM68 °FPassing clouds.7 mph83%30.04 "Hg6 mi
4:51 AM68 °FPassing clouds.7 mph78%30.01 "Hg6 mi
3:51 AM68 °FPassing clouds.7 mph78%30.01 "Hg6 mi
2:51 AM68 °FPassing clouds.7 mph78%30.01 "Hg6 mi
1:51 AM70 °FPassing clouds.6 mph73%30.04 "Hg6 mi
12:51 AM72 °FPassing clouds.7 mph69%30.04 "Hg6 mi
11:50 PM
Wed, Mar 4
73 °FPassing clouds.6 mph65%30.07 "Hg6 mi
10:51 PM73 °FPassing clouds.6 mph69%30.07 "Hg6 mi
9:51 PM75 °FPassing clouds.3 mph65%30.07 "Hg6 mi
8:51 PM75 °FPassing clouds.5 mph69%30.07 "Hg6 mi
7:53 PM79 °FPassing clouds.9 mph65%30.04 "Hg6 mi
6:50 PM79 °FPassing clouds.15 mph70%30.01 "Hg6 mi
Weather by CustomWeather, © 2015

See weather overviewHow to use our weather pages